This is the latest recevied weather packets stored in our database for station/object OE3TEC-15. If no packets are shown the sender has not sent any weather packets the latest 10 day(s).
| Time | Temp. | Humidity | Pressure | Rain* | Wind** | Luminosity | Snow |
|---|---|---|---|---|---|---|---|
| 1777673557 | 7.22° C | 74% | 1026.8 hPa | 0 mm | - | 0 W/m² | - |
| 1777672950 | 7.22° C | 73% | 1026.7 hPa | 0 mm | - | 0 W/m² | - |
| 1777672343 | 6.67° C | 75% | 1026.7 hPa | 0 mm | - | 0 W/m² | - |
| 1777671737 | 7.22° C | 74% | 1026.6 hPa | 0 mm | - | 0 W/m² | - |
| 1777671129 | 7.22° C | 74% | 1026.7 hPa | 0 mm | - | 0 W/m² | - |
| 1777670522 | 7.78° C | 73% | 1026.7 hPa | 0 mm | - | 0 W/m² | - |
| 1777669915 | 7.78° C | 72% | 1026.7 hPa | 0 mm | - | 0 W/m² | - |
| 1777669307 | 7.78° C | 72% | 1026.7 hPa | 0 mm | - | 0 W/m² | - |
| 1777668700 | 8.89° C | 69% | 1026.6 hPa | 0 mm | - | 0 W/m² | - |
| 1777668093 | 8.33° C | 70% | 1026.5 hPa | 0 mm | - | 0 W/m² | - |
| 1777667485 | 8.33° C | 70% | 1026.6 hPa | 0 mm | - | 0 W/m² | - |
| 1777666878 | 8.89° C | 70% | 1026.5 hPa | 0 mm | - | 0 W/m² | - |
| 1777666271 | 8.89° C | 68% | 1026.4 hPa | 0 mm | - | 0 W/m² | - |
| 1777665665 | 9.44° C | 67% | 1026.5 hPa | 0 mm | - | 0 W/m² | - |
| 1777665057 | 9.44° C | 66% | 1026.6 hPa | 0 mm | - | 0 W/m² | - |
| 1777664450 | 10° C | 64% | 1026.6 hPa | 0 mm | - | 0 W/m² | - |
| 1777663843 | 10.56° C | 63% | 1026.7 hPa | 0 mm | - | 0 W/m² | - |
| 1777663236 | 10.56° C | 62% | 1026.5 hPa | 0 mm | - | 0 W/m² | - |
| 1777662629 | 11.11° C | 61% | 1026.5 hPa | 0 mm | - | 0 W/m² | - |
| 1777662021 | 11.11° C | 60% | 1026.5 hPa | 0 mm | - | 0 W/m² | - |
| 1777661413 | 11.67° C | 59% | 1026.3 hPa | 0 mm | - | 0 W/m² | - |
| 1777660806 | 11.67° C | 60% | 1026.3 hPa | 0 mm | - | 0 W/m² | - |
| 1777660198 | 11.67° C | 59% | 1026.5 hPa | 0 mm | - | 0 W/m² | - |
| 1777659591 | 12.78° C | 57% | 1026.2 hPa | 0 mm | - | 1 W/m² | - |
| 1777658985 | 13.89° C | 53% | 1026 hPa | 0 mm | - | 2 W/m² | - |
* Rain latest hour (hover to see other rain measurements)
** Current wind speed in m/s (hover to see current wind gust speed)